Regional Weather Roundup
Issued by NWS

Home | Current Version | Previous Version | Graphics & Text | Print | Product List | Glossary On
Versions: 1 2 3 4 5 6 7 8 9 10 11 12 13 14 15 16 17 18 19 20 21 22 23 24 25 26 27 28 29 30 31 32 33 34 35 36 37 38 39 40 41 42 43 44 45 46 47 48 49 50
362
ASUS44 KLIX 211501
RWRLA
LOUISIANA WEATHER ROUNDUP
NATIONAL WEATHER SERVICE NEW ORLEANS LA
1000 AM CDT THU AUG 21 2014

NOTE: "FAIR" INDICATES FEW OR NO CLOUDS BELOW 12,000 FEET WITH NO
      SIGNIFICANT WEATHER AND/OR OBSTRUCTIONS TO VISIBILITY.
      SKY/WX - SKY CONDITION AND SIGNIFICANT WEATHER.
      TMP - AIR TEMPERATURE.    DP   - DEWPOINT TEMPERATURE.
      RH  - RELATIVE HUMIDITY.  PRES - PRESSURE.
      HX  - HEAT INDEX.         WCI  - WIND CHILL INDEX.

*  THESE STATIONS ARE NOT NWS OR FAA STATIONS AND ARE NOT UNDER
   NWS QUALITY CONTROL.

LAZ040-048-061>063-065-066-069-211600-
SOUTHEAST LOUISIANA

CITY           SKY/WX    TMP DP  RH WIND       PRES   REMARKS
N.O. AUDUBON   NOT AVBL
N.O. INTL ARPT PTSUNNY   88  77  69 CALM      30.14R HX 100
N.O. LAKEFRONT SUNNY     88  77  69 N5        30.15R HX 100
N.O. DOWNTOWN* FAIR      88  73  62 CALM      30.15S HX  96
SLIDELL        SUNNY     88  76  67 CALM      30.14S HX  99
BATON ROUGE    PTSUNNY   85  76  74 CALM      30.14S
BOOTHVILLE     SUNNY     87  75  67 VRB5      30.15R HX  96
BELLE CHASSE   PTSUNNY   87  74  64 S5        30.14R HX  95
BOGALUSA*      FAIR      87  76  70 CALM      30.16S HX  97
GALLIANO*      NOT AVBL
NEW ROADS*     FAIR      83  78  83 CALM      30.14S
GONZALES*      FAIR      87  81  83 S3        30.13S HX 103
HAMMOND*       NOT AVBL
HOUMA*         MOSUNNY   88  75  66 CALM      30.14R HX  97
PORT FOURCHON* MOSUNNY   88  75  66 SW5       30.16R HX  97

$$

LAZ041-044-053-054-211600-
SOUTHWEST LOUISIANA

CITY           SKY/WX    TMP DP  RH WIND       PRES   REMARKS
LAKE CHARLES   PTSUNNY   87  79  76 S7        30.10S HX 101
LAFAYETTE      SUNNY     87  78  74 S5        30.13S HX 100
PATTERSON      MOSUNNY  N/A N/A N/A MISG        N/A
SALT POINT       N/A     91  79  67 VRB3      30.12S HX 107
NEW IBERIA     SUNNY     89  79  72 S6        30.13S HX 104
CHENAULT AIRPK MOSUNNY   84  79  84 S6        30.11S HX  96

$$

LAZ027-028-211600-
CENTRAL LOUISIANA

CITY           SKY/WX    TMP DP  RH WIND       PRES   REMARKS
FORT POLK      SUNNY     85  78  80 SW9       30.12R HX  96
ALEXANDRIA INT MOSUNNY   86  78  77 S6        30.11R HX  98
ALEXANDRIA     MOSUNNY   87  77  72 SE6       30.12F HX  99

$$

LAZ001-002-211600-
NORTHWEST LOUISIANA

CITY           SKY/WX    TMP DP  RH WIND       PRES   REMARKS
SHREVEPORT     PTSUNNY   85  76  74 SW12      30.10S
BARKSDALE AFB  PTSUNNY   83  75  78 S7        30.11S
DTN SHREVEPORT PTSUNNY   83  75  77 SW12      30.10F

$$

LAZ014-016-211600-
NORTHEAST LOUISIANA

CITY           SKY/WX    TMP DP  RH WIND       PRES   REMARKS
MONROE         MOSUNNY   82  77  84 S7        30.13F
TALLULAH       MOSUNNY   87  76  69 VRB5      30.13F HX  97

$$




USA.gov is the U.S. government's official web portal to all federal, state and local government web resources and services.